contact:dominique.lefevre@mio.osupytheas.fr, maurice.libes@osupytheas.fr, didier.mallarino@osupytheas.fr
Project:EMSO http://www.emso-fr.org/EMSO-France
Depth: 2436.0 m
Title:EMSO Ligure Ouest : Data MII capteur MICROCAT
DateTime_Computer,Latitude,Longitude,Temperature,Conductivity,Pressure,DateTime_Instrument
DateTime_Computer,Latitude,Longitude,degC,S m-1,dbar,DateTime_Instrument
2019-09-11T00:02:22Z,42.805,6.029,13.2971,4.60001,2469.89,2019-9-11T02:02:45Z
2019-09-11T00:05:25Z,42.805,6.029,13.2971,4.59968,2469.853,2019-9-11T02:05:48Z
2019-09-11T00:08:28Z,42.805,6.029,13.2964,4.59977,2469.876,2019-9-11T02:08:51Z
2019-09-11T00:11:32Z,42.805,6.029,13.2968,4.59984,2469.876,2019-9-11T02:11:54Z
2019-09-11T00:14:35Z,42.805,6.029,13.2968,4.59986,2469.89,2019-9-11T02:14:58Z
2019-09-11T00:17:38Z,42.805,6.029,13.2968,4.59974,2469.876,2019-9-11T02:18:01Z
2019-09-11T00:20:41Z,42.805,6.029,13.2968,4.59975,2469.876,2019-9-11T02:21:04Z
2019-09-11T00:23:44Z,42.805,6.029,13.2967,4.59980,2469.867,2019-9-11T02:24:07Z
2019-09-11T00:26:48Z,42.805,6.029,13.2968,4.59988,2469.923,2019-9-11T02:27:10Z
2019-09-11T00:29:51Z,42.805,6.029,13.2969,4.59988,2469.914,2019-9-11T02:30:14Z
2019-09-11T00:32:54Z,42.805,6.029,13.2965,4.59998,2469.914,2019-9-11T02:33:17Z
2019-09-11T00:35:57Z,42.805,6.029,13.2967,4.59971,2469.876,2019-9-11T02:36:20Z
2019-09-11T00:39:00Z,42.805,6.029,13.2963,4.59970,2469.9,2019-9-11T02:39:23Z
2019-09-11T00:42:04Z,42.805,6.029,13.2970,4.59972,2469.914,2019-9-11T02:42:26Z
2019-09-11T00:45:07Z,42.805,6.029,13.2967,4.59968,2469.89,2019-9-11T02:45:30Z
2019-09-11T00:48:10Z,42.805,6.029,13.2961,4.59973,2469.9,2019-9-11T02:48:33Z
2019-09-11T00:51:13Z,42.805,6.029,13.2964,4.59969,2469.9,2019-9-11T02:51:36Z
2019-09-11T00:54:16Z,42.805,6.029,13.2967,4.59986,2469.914,2019-9-11T02:54:39Z
2019-09-11T00:57:20Z,42.805,6.029,13.2967,4.59978,2469.914,2019-9-11T02:57:42Z
2019-09-11T01:00:23Z,42.805,6.029,13.2971,4.59991,2469.914,2019-9-11T03:00:46Z
2019-09-11T01:03:26Z,42.805,6.029,13.2964,4.59973,2469.876,2019-9-11T03:03:49Z
2019-09-11T01:06:29Z,42.805,6.029,13.2968,4.59978,2469.9,2019-9-11T03:06:52Z
2019-09-11T01:09:32Z,42.805,6.029,13.2964,4.59972,2469.853,2019-9-11T03:09:55Z
2019-09-11T01:12:36Z,42.805,6.029,13.2964,4.59968,2469.9,2019-9-11T03:12:58Z
2019-09-11T01:15:39Z,42.805,6.029,13.2964,4.59977,2469.914,2019-9-11T03:16:02Z
2019-09-11T01:18:42Z,42.805,6.029,13.2976,4.59984,2469.876,2019-9-11T03:19:05Z
2019-09-11T01:21:45Z,42.805,6.029,13.2964,4.59973,2469.9,2019-9-11T03:22:08Z
2019-09-11T01:24:48Z,42.805,6.029,13.2961,4.59967,2469.876,2019-9-11T03:25:11Z
2019-09-11T01:27:52Z,42.805,6.029,13.2966,4.59968,2469.9,2019-9-11T03:28:15Z
2019-09-11T01:30:55Z,42.805,6.029,13.2965,4.59970,2469.876,2019-9-11T03:31:18Z
2019-09-11T01:33:58Z,42.805,6.029,13.2964,4.59964,2469.9,2019-9-11T03:34:21Z
2019-09-11T01:37:02Z,42.805,6.029,13.2964,4.59968,2469.923,2019-9-11T03:37:24Z
2019-09-11T01:40:05Z,42.805,6.029,13.2964,4.59971,2469.914,2019-9-11T03:40:28Z
2019-09-11T01:43:08Z,42.805,6.029,13.2977,4.59981,2469.876,2019-9-11T03:43:31Z
2019-09-11T01:46:11Z,42.805,6.029,13.2960,4.59968,2469.937,2019-9-11T03:46:34Z
2019-09-11T01:49:14Z,42.805,6.029,13.2971,4.59973,2469.89,2019-9-11T03:49:37Z
2019-09-11T01:52:18Z,42.805,6.029,13.2971,4.59987,2469.9,2019-9-11T03:52:40Z
2019-09-11T01:55:21Z,42.805,6.029,13.2965,4.59971,2469.876,2019-9-11T03:55:44Z
2019-09-11T01:58:24Z,42.805,6.029,13.2964,4.59971,2469.914,2019-9-11T03:58:47Z
2019-09-11T02:01:27Z,42.805,6.029,13.2964,4.59971,2469.923,2019-9-11T04:01:50Z
2019-09-11T02:04:30Z,42.805,6.029,13.2968,4.59986,2469.876,2019-9-11T04:04:53Z
2019-09-11T02:07:34Z,42.805,6.029,13.2964,4.59971,2469.876,2019-9-11T04:07:57Z
2019-09-11T02:10:37Z,42.805,6.029,13.2966,4.59972,2469.9,2019-9-11T04:11:00Z
2019-09-11T02:13:41Z,42.805,6.029,13.2968,4.59973,2469.89,2019-9-11T04:14:03Z
2019-09-11T02:16:44Z,42.805,6.029,13.2961,4.59973,2469.9,2019-9-11T04:17:07Z
2019-09-11T02:19:47Z,42.805,6.029,13.2982,4.59979,2469.914,2019-9-11T04:20:10Z
2019-09-11T02:22:50Z,42.805,6.029,13.2968,4.59976,2469.937,2019-9-11T04:23:13Z
2019-09-11T02:25:53Z,42.805,6.029,13.2967,4.59986,2469.9,2019-9-11T04:26:16Z
2019-09-11T02:28:57Z,42.805,6.029,13.2963,4.59979,2469.89,2019-9-11T04:29:19Z
2019-09-11T02:32:00Z,42.805,6.029,13.2967,4.59973,2469.89,2019-9-11T04:32:23Z
2019-09-11T02:35:03Z,42.805,6.029,13.2972,4.59978,2469.914,2019-9-11T04:35:26Z
2019-09-11T02:38:06Z,42.805,6.029,13.2961,4.59979,2469.89,2019-9-11T04:38:29Z
2019-09-11T02:41:09Z,42.805,6.029,13.2967,4.59969,2469.923,2019-9-11T04:41:32Z
2019-09-11T02:44:13Z,42.805,6.029,13.2972,4.59983,2469.89,2019-9-11T04:44:35Z
2019-09-11T02:47:16Z,42.805,6.029,13.2970,4.59982,2469.914,2019-9-11T04:47:39Z
2019-09-11T02:50:19Z,42.805,6.029,13.2973,4.59982,2469.886,2019-9-11T04:50:42Z
2019-09-11T02:53:22Z,42.805,6.029,13.2958,4.59964,2469.96,2019-9-11T04:53:45Z
2019-09-11T02:56:26Z,42.805,6.029,13.2961,4.59962,2469.937,2019-9-11T04:56:48Z
2019-09-11T02:59:29Z,42.805,6.029,13.2960,4.59966,2469.96,2019-9-11T04:59:51Z
2019-09-11T03:02:32Z,42.805,6.029,13.2964,4.59980,2469.914,2019-9-11T05:02:55Z
2019-09-11T03:05:35Z,42.805,6.029,13.2967,4.59969,2469.914,2019-9-11T05:05:58Z
2019-09-11T03:08:38Z,42.805,6.029,13.2963,4.59974,2469.9,2019-9-11T05:09:01Z
2019-09-11T03:11:42Z,42.805,6.029,13.2962,4.59975,2469.947,2019-9-11T05:12:04Z
2019-09-11T03:14:45Z,42.805,6.029,13.2963,4.59969,2469.923,2019-9-11T05:15:08Z
2019-09-11T03:17:48Z,42.805,6.029,13.2958,4.59968,2469.923,2019-9-11T05:18:11Z
2019-09-11T03:20:51Z,42.805,6.029,13.2961,4.59971,2469.97,2019-9-11T05:21:14Z
2019-09-11T03:23:54Z,42.805,6.029,13.2965,4.59970,2469.923,2019-9-11T05:24:17Z
2019-09-11T03:26:58Z,42.805,6.029,13.2967,4.59968,2469.947,2019-9-11T05:27:20Z
2019-09-11T03:30:01Z,42.805,6.029,13.2967,4.59978,2469.96,2019-9-11T05:30:24Z
2019-09-11T03:33:04Z,42.805,6.029,13.2969,4.59974,2469.984,2019-9-11T05:33:27Z
2019-09-11T03:36:07Z,42.805,6.029,13.2966,4.59976,2469.937,2019-9-11T05:36:30Z
2019-09-11T03:39:10Z,42.805,6.029,13.2960,4.59969,2469.9,2019-9-11T05:39:33Z
2019-09-11T03:42:14Z,42.805,6.029,13.2961,4.59966,2469.914,2019-9-11T05:42:36Z
2019-09-11T03:45:17Z,42.805,6.029,13.2960,4.59964,2469.923,2019-9-11T05:45:40Z
2019-09-11T03:48:20Z,42.805,6.029,13.2960,4.59964,2469.937,2019-9-11T05:48:43Z
2019-09-11T03:51:23Z,42.805,6.029,13.2961,4.59965,2469.96,2019-9-11T05:51:46Z
2019-09-11T03:54:27Z,42.805,6.029,13.2962,4.59969,2469.97,2019-9-11T05:54:49Z
2019-09-11T03:57:30Z,42.805,6.029,13.2964,4.59972,2469.937,2019-9-11T05:57:52Z
2019-09-11T04:00:33Z,42.805,6.029,13.2966,4.59970,2469.97,2019-9-11T06:00:56Z
2019-09-11T04:03:36Z,42.805,6.029,13.2976,4.59981,2469.947,2019-9-11T06:03:59Z
2019-09-11T04:06:39Z,42.805,6.029,13.2963,4.59969,2469.97,2019-9-11T06:07:02Z
2019-09-11T04:09:42Z,42.805,6.029,13.2966,4.59969,2469.96,2019-9-11T06:10:05Z
2019-09-11T04:12:46Z,42.805,6.029,13.2965,4.59976,2469.96,2019-9-11T06:13:08Z
2019-09-11T04:15:49Z,42.805,6.029,13.2962,4.59966,2469.97,2019-9-11T06:16:12Z
2019-09-11T04:18:52Z,42.805,6.029,13.2967,4.59965,2469.947,2019-9-11T06:19:15Z
2019-09-11T04:21:55Z,42.805,6.029,13.2965,4.59978,2469.97,2019-9-11T06:22:18Z
2019-09-11T04:24:59Z,42.805,6.029,13.2968,4.59975,2469.937,2019-9-11T06:25:21Z
2019-09-11T04:28:02Z,42.805,6.029,13.2962,4.59968,2469.984,2019-9-11T06:28:25Z
2019-09-11T04:31:05Z,42.805,6.029,13.2966,4.59973,2469.97,2019-9-11T06:31:28Z
2019-09-11T04:34:08Z,42.805,6.029,13.2961,4.59968,2469.984,2019-9-11T06:34:31Z
2019-09-11T04:37:11Z,42.805,6.029,13.2960,4.59961,2469.97,2019-9-11T06:37:34Z
2019-09-11T04:40:15Z,42.805,6.029,13.2968,4.59975,2469.947,2019-9-11T06:40:37Z
2019-09-11T04:43:18Z,42.805,6.029,13.2968,4.59976,2469.96,2019-9-11T06:43:41Z
2019-09-11T04:46:21Z,42.805,6.029,13.2972,4.59981,2470.017,2019-9-11T06:46:44Z
2019-09-11T04:49:24Z,42.805,6.029,13.2964,4.59986,2469.96,2019-9-11T06:49:47Z
2019-09-11T04:52:27Z,42.805,6.029,13.2964,4.59973,2469.947,2019-9-11T06:52:50Z
2019-09-11T04:55:31Z,42.805,6.029,13.2968,4.59978,2469.947,2019-9-11T06:55:53Z
2019-09-11T04:58:34Z,42.805,6.029,13.2960,4.59968,2469.96,2019-9-11T06:58:56Z
2019-09-11T05:01:37Z,42.805,6.029,13.2964,4.59970,2469.947,2019-9-11T07:02:00Z
2019-09-11T05:04:40Z,42.805,6.029,13.2970,4.59984,2469.947,2019-9-11T07:05:03Z
2019-09-11T05:07:43Z,42.805,6.029,13.2971,4.59983,2469.947,2019-9-11T07:08:06Z
2019-09-11T05:10:47Z,42.805,6.029,13.2967,4.59980,2469.96,2019-9-11T07:11:09Z
2019-09-11T05:13:50Z,42.805,6.029,13.2967,4.59974,2469.96,2019-9-11T07:14:13Z
2019-09-11T05:16:53Z,42.805,6.029,13.2967,4.59963,2469.947,2019-9-11T07:17:16Z
2019-09-11T05:19:56Z,42.805,6.029,13.2963,4.59971,2469.947,2019-9-11T07:20:19Z
2019-09-11T05:22:59Z,42.805,6.029,13.2963,4.59968,2469.97,2019-9-11T07:23:22Z
2019-09-11T05:26:03Z,42.805,6.029,13.2961,4.59966,2469.947,2019-9-11T07:26:25Z
2019-09-11T05:29:06Z,42.805,6.029,13.2963,4.59976,2470.03,2019-9-11T07:29:29Z
2019-09-11T05:32:09Z,42.805,6.029,13.2960,4.59966,2469.97,2019-9-11T07:32:32Z
2019-09-11T05:35:13Z,42.805,6.029,13.2960,4.59972,2469.97,2019-9-11T07:35:35Z
2019-09-11T05:38:16Z,42.805,6.029,13.2968,4.59970,2469.984,2019-9-11T07:38:38Z
2019-09-11T05:41:19Z,42.805,6.029,13.2961,4.59967,2469.993,2019-9-11T07:41:42Z
2019-09-11T05:44:22Z,42.805,6.029,13.2962,4.59966,2469.984,2019-9-11T07:44:45Z
2019-09-11T05:47:25Z,42.805,6.029,13.2968,4.59981,2469.993,2019-9-11T07:47:48Z
2019-09-11T05:50:28Z,42.805,6.029,13.2971,4.59977,2469.97,2019-9-11T07:50:51Z
2019-09-11T05:53:32Z,42.805,6.029,13.2959,4.59966,2469.97,2019-9-11T07:53:54Z
2019-09-11T05:56:35Z,42.805,6.029,13.2964,4.59968,2469.947,2019-9-11T07:56:58Z
2019-09-11T05:59:38Z,42.805,6.029,13.2963,4.59964,2469.984,2019-9-11T08:00:01Z
2019-09-11T06:02:41Z,42.805,6.029,13.2958,4.59970,2469.97,2019-9-11T08:03:04Z
2019-09-11T06:05:45Z,42.805,6.029,13.2961,4.59964,2469.993,2019-9-11T08:06:07Z
2019-09-11T06:08:48Z,42.805,6.029,13.2960,4.59967,2469.97,2019-9-11T08:09:10Z
2019-09-11T06:11:51Z,42.805,6.029,13.2959,4.59963,2469.97,2019-9-11T08:12:14Z
2019-09-11T06:14:54Z,42.805,6.029,13.2962,4.59991,2470.007,2019-9-11T08:15:17Z
2019-09-11T06:17:57Z,42.805,6.029,13.2964,4.59980,2469.984,2019-9-11T08:18:20Z
2019-09-11T06:21:01Z,42.805,6.029,13.2961,4.59968,2469.956,2019-9-11T08:21:23Z
2019-09-11T06:24:04Z,42.805,6.029,13.2964,4.59991,2469.984,2019-9-11T08:24:27Z
2019-09-11T06:27:07Z,42.805,6.029,13.2961,4.59973,2469.97,2019-9-11T08:27:30Z
2019-09-11T06:30:10Z,42.805,6.029,13.2962,4.59971,2469.97,2019-9-11T08:30:33Z
2019-09-11T06:33:13Z,42.805,6.029,13.2963,4.59991,2469.97,2019-9-11T08:33:36Z
2019-09-11T06:36:17Z,42.805,6.029,13.2971,4.59979,2469.97,2019-9-11T08:36:39Z
2019-09-11T06:39:20Z,42.805,6.029,13.2962,4.59969,2469.984,2019-9-11T08:39:43Z
2019-09-11T06:42:23Z,42.805,6.029,13.2961,4.59965,2469.97,2019-9-11T08:42:46Z
2019-09-11T06:45:26Z,42.805,6.029,13.2958,4.59982,2469.97,2019-9-11T08:45:49Z
2019-09-11T06:48:29Z,42.805,6.029,13.2964,4.59964,2469.97,2019-9-11T08:48:52Z
2019-09-11T06:51:33Z,42.805,6.029,13.2958,4.59967,2469.984,2019-9-11T08:51:55Z
2019-09-11T06:54:36Z,42.805,6.029,13.2965,4.59973,2469.97,2019-9-11T08:54:59Z
2019-09-11T06:57:39Z,42.805,6.029,13.2960,4.59967,2469.947,2019-9-11T08:58:02Z
2019-09-11T07:00:42Z,42.805,6.029,13.2968,4.59983,2469.993,2019-9-11T09:01:05Z
2019-09-11T07:03:45Z,42.805,6.029,13.2963,4.59978,2469.97,2019-9-11T09:04:08Z
2019-09-11T07:06:49Z,42.805,6.029,13.2962,4.59970,2469.96,2019-9-11T09:07:11Z
2019-09-11T07:09:52Z,42.805,6.029,13.2969,4.59993,2469.96,2019-9-11T09:10:15Z
2019-09-11T07:12:55Z,42.805,6.029,13.2964,4.59980,2469.993,2019-9-11T09:13:18Z
2019-09-11T07:15:58Z,42.805,6.029,13.2963,4.59971,2469.96,2019-9-11T09:16:21Z
2019-09-11T07:19:01Z,42.805,6.029,13.2961,4.59973,2469.984,2019-9-11T09:19:24Z
2019-09-11T07:22:05Z,42.805,6.029,13.2956,4.59968,2469.937,2019-9-11T09:22:27Z
2019-09-11T07:25:08Z,42.805,6.029,13.2967,4.59969,2470.007,2019-9-11T09:25:31Z
2019-09-11T07:28:11Z,42.805,6.029,13.2964,4.59971,2469.947,2019-9-11T09:28:34Z
2019-09-11T07:31:14Z,42.805,6.029,13.2965,4.59972,2470.007,2019-9-11T09:31:37Z
2019-09-11T07:34:18Z,42.805,6.029,13.2964,4.59977,2469.937,2019-9-11T09:34:40Z
2019-09-11T07:37:21Z,42.805,6.029,13.2968,4.59979,2469.947,2019-9-11T09:37:44Z
2019-09-11T07:40:24Z,42.805,6.029,13.2960,4.59968,2469.923,2019-9-11T09:40:47Z
2019-09-11T07:43:27Z,42.805,6.029,13.2964,4.59967,2469.96,2019-9-11T09:43:50Z
2019-09-11T07:46:30Z,42.805,6.029,13.2964,4.59984,2469.97,2019-9-11T09:46:53Z
2019-09-11T07:49:34Z,42.805,6.029,13.2962,4.59972,2469.96,2019-9-11T09:49:56Z
2019-09-11T07:52:37Z,42.805,6.029,13.2965,4.59970,2469.984,2019-9-11T09:52:59Z
2019-09-11T07:55:40Z,42.805,6.029,13.2963,4.59973,2469.97,2019-9-11T09:56:03Z
2019-09-11T07:58:43Z,42.805,6.029,13.2966,4.59970,2469.947,2019-9-11T09:59:06Z
2019-09-11T08:01:46Z,42.805,6.029,13.2963,4.59969,2469.984,2019-9-11T10:02:09Z
2019-09-11T08:04:50Z,42.805,6.029,13.2959,4.59968,2469.97,2019-9-11T10:05:12Z
2019-09-11T08:07:53Z,42.805,6.029,13.2967,4.59971,2469.937,2019-9-11T10:08:16Z
2019-09-11T08:10:56Z,42.805,6.029,13.2963,4.59966,2469.984,2019-9-11T10:11:19Z
2019-09-11T08:13:59Z,42.805,6.029,13.2965,4.59976,2469.984,2019-9-11T10:14:22Z
2019-09-11T08:17:02Z,42.805,6.029,13.2963,4.59971,2469.947,2019-9-11T10:17:25Z
2019-09-11T08:20:06Z,42.805,6.029,13.2958,4.59979,2469.947,2019-9-11T10:20:28Z
2019-09-11T08:23:09Z,42.805,6.029,13.2969,4.59968,2469.96,2019-9-11T10:23:31Z
2019-09-11T08:26:12Z,42.805,6.029,13.2959,4.59970,2469.96,2019-9-11T10:26:35Z
2019-09-11T08:29:15Z,42.805,6.029,13.2973,4.59994,2469.96,2019-9-11T10:29:38Z
2019-09-11T08:32:18Z,42.805,6.029,13.2958,4.59967,2469.97,2019-9-11T10:32:41Z
2019-09-11T08:35:22Z,42.805,6.029,13.2960,4.59969,2469.96,2019-9-11T10:35:44Z
2019-09-11T08:38:25Z,42.805,6.029,13.2974,4.59980,2469.984,2019-9-11T10:38:47Z
2019-09-11T08:41:28Z,42.805,6.029,13.2964,4.59968,2469.947,2019-9-11T10:41:51Z
2019-09-11T08:44:31Z,42.805,6.029,13.2968,4.59972,2469.923,2019-9-11T10:44:54Z
2019-09-11T08:47:34Z,42.805,6.029,13.2967,4.59969,2469.923,2019-9-11T10:47:57Z
2019-09-11T08:50:38Z,42.805,6.029,13.2967,4.59973,2469.947,2019-9-11T10:51:00Z
2019-09-11T08:53:41Z,42.805,6.029,13.2955,4.59964,2469.947,2019-9-11T10:54:04Z
2019-09-11T08:56:44Z,42.805,6.029,13.2966,4.59966,2469.9,2019-9-11T10:57:07Z
2019-09-11T08:59:47Z,42.805,6.029,13.2961,4.59981,2469.9,2019-9-11T11:00:10Z
2019-09-11T09:02:51Z,42.805,6.029,13.2965,4.59980,2469.9,2019-9-11T11:03:13Z
2019-09-11T09:05:54Z,42.805,6.029,13.2959,4.59973,2469.937,2019-9-11T11:06:16Z
2019-09-11T09:08:57Z,42.805,6.029,13.2964,4.59970,2469.876,2019-9-11T11:09:20Z
2019-09-11T09:12:00Z,42.805,6.029,13.2961,4.59967,2469.9,2019-9-11T11:12:23Z
2019-09-11T09:15:03Z,42.805,6.029,13.2959,4.59967,2469.96,2019-9-11T11:15:26Z
2019-09-11T09:18:06Z,42.805,6.029,13.2970,4.59979,2469.923,2019-9-11T11:18:29Z
2019-09-11T09:21:10Z,42.805,6.029,13.2964,4.59973,2469.937,2019-9-11T11:21:32Z
2019-09-11T09:24:13Z,42.805,6.029,13.2965,4.59975,2469.947,2019-9-11T11:24:36Z
2019-09-11T09:27:16Z,42.805,6.029,13.2962,4.59968,2469.937,2019-9-11T11:27:39Z
2019-09-11T09:30:19Z,42.805,6.029,13.2961,4.59971,2469.923,2019-9-11T11:30:42Z
2019-09-11T09:33:23Z,42.805,6.029,13.2957,4.59970,2469.923,2019-9-11T11:33:45Z
2019-09-11T09:36:26Z,42.805,6.029,13.2960,4.59966,2469.914,2019-9-11T11:36:49Z
2019-09-11T09:39:29Z,42.805,6.029,13.2962,4.59976,2469.9,2019-9-11T11:39:52Z
2019-09-11T09:42:32Z,42.805,6.029,13.2962,4.59974,2469.923,2019-9-11T11:42:55Z
2019-09-11T09:45:35Z,42.805,6.029,13.2958,4.59968,2469.937,2019-9-11T11:45:58Z
2019-09-11T09:48:39Z,42.805,6.029,13.2962,4.59969,2469.937,2019-9-11T11:49:01Z
2019-09-11T09:51:42Z,42.805,6.029,13.2965,4.59976,2469.9,2019-9-11T11:52:05Z
2019-09-11T09:54:45Z,42.805,6.029,13.2961,4.59964,2469.876,2019-9-11T11:55:08Z
2019-09-11T09:57:48Z,42.805,6.029,13.2960,4.59967,2469.9,2019-9-11T11:58:11Z
2019-09-11T10:00:51Z,42.805,6.029,13.2961,4.59966,2469.9,2019-9-11T12:01:14Z
2019-09-11T10:03:55Z,42.805,6.029,13.2962,4.59971,2469.9,2019-9-11T12:04:17Z
2019-09-11T10:06:58Z,42.805,6.029,13.2961,4.59978,2469.9,2019-9-11T12:07:21Z
2019-09-11T10:10:01Z,42.805,6.029,13.2958,4.59966,2469.9,2019-9-11T12:10:24Z
2019-09-11T10:13:04Z,42.805,6.029,13.2965,4.59970,2469.914,2019-9-11T12:13:27Z
2019-09-11T10:16:08Z,42.805,6.029,13.2960,4.59972,2469.914,2019-9-11T12:16:30Z
2019-09-11T10:19:11Z,42.805,6.029,13.2964,4.59969,2469.9,2019-9-11T12:19:33Z
2019-09-11T10:22:14Z,42.805,6.029,13.2967,4.59988,2469.914,2019-9-11T12:22:37Z
2019-09-11T10:25:17Z,42.805,6.029,13.2965,4.59981,2469.9,2019-9-11T12:25:40Z
2019-09-11T10:28:20Z,42.805,6.029,13.2967,4.59978,2469.89,2019-9-11T12:28:43Z
2019-09-11T10:31:24Z,42.805,6.029,13.2965,4.59986,2469.876,2019-9-11T12:31:46Z
2019-09-11T10:34:27Z,42.805,6.029,13.2968,4.59981,2469.89,2019-9-11T12:34:50Z
2019-09-11T10:37:30Z,42.805,6.029,13.2962,4.59976,2469.9,2019-9-11T12:37:53Z
2019-09-11T10:40:33Z,42.805,6.029,13.2966,4.59974,2469.9,2019-9-11T12:40:56Z
2019-09-11T10:43:36Z,42.805,6.029,13.2961,4.59986,2469.9,2019-9-11T12:43:59Z
2019-09-11T10:46:40Z,42.805,6.029,13.2963,4.59979,2469.876,2019-9-11T12:47:02Z
2019-09-11T10:49:43Z,42.805,6.029,13.2961,4.59991,2469.9,2019-9-11T12:50:06Z
2019-09-11T10:52:46Z,42.805,6.029,13.2966,4.59973,2469.89,2019-9-11T12:53:09Z
2019-09-11T10:55:49Z,42.805,6.029,13.2974,4.59976,2469.937,2019-9-11T12:56:12Z
2019-09-11T10:58:52Z,42.805,6.029,13.2964,4.59979,2469.876,2019-9-11T12:59:15Z
2019-09-11T11:01:56Z,42.805,6.029,13.2968,4.59976,2469.867,2019-9-11T13:02:18Z
2019-09-11T11:04:59Z,42.805,6.029,13.2966,4.59996,2469.876,2019-9-11T13:05:22Z
2019-09-11T11:08:02Z,42.805,6.029,13.2961,4.59971,2469.9,2019-9-11T13:08:25Z
2019-09-11T11:11:05Z,42.805,6.029,13.2978,4.59999,2469.9,2019-9-11T13:11:28Z
2019-09-11T11:14:08Z,42.805,6.029,13.2964,4.59975,2469.9,2019-9-11T13:14:31Z
2019-09-11T11:17:12Z,42.805,6.029,13.2963,4.59968,2469.914,2019-9-11T13:17:34Z
2019-09-11T11:20:15Z,42.805,6.029,13.2961,4.59967,2469.89,2019-9-11T13:20:38Z
2019-09-11T11:23:18Z,42.805,6.029,13.2964,4.59972,2469.9,2019-9-11T13:23:41Z
2019-09-11T11:26:21Z,42.805,6.029,13.2970,4.59982,2469.914,2019-9-11T13:26:44Z
2019-09-11T11:29:24Z,42.805,6.029,13.2971,4.59973,2469.89,2019-9-11T13:29:47Z
2019-09-11T11:32:28Z,42.805,6.029,13.2967,4.59982,2469.876,2019-9-11T13:32:50Z
2019-09-11T11:35:31Z,42.805,6.029,13.2968,4.59981,2469.89,2019-9-11T13:35:54Z
2019-09-11T11:38:34Z,42.805,6.029,13.2961,4.59964,2469.867,2019-9-11T13:38:57Z
2019-09-11T11:41:37Z,42.805,6.029,13.2971,4.59979,2469.9,2019-9-11T13:42:00Z
2019-09-11T11:44:40Z,42.805,6.029,13.2964,4.59973,2469.89,2019-9-11T13:45:03Z
2019-09-11T11:47:44Z,42.805,6.029,13.2958,4.59979,2469.867,2019-9-11T13:48:06Z
2019-09-11T11:50:47Z,42.805,6.029,13.2965,4.59970,2469.89,2019-9-11T13:51:10Z
2019-09-11T11:53:50Z,42.805,6.029,13.2959,4.59967,2469.867,2019-9-11T13:54:13Z
2019-09-11T11:56:53Z,42.805,6.029,13.2966,4.59970,2469.863,2019-9-11T13:57:16Z
2019-09-11T11:59:57Z,42.805,6.029,13.2964,4.59972,2469.914,2019-9-11T14:00:19Z
2019-09-11T12:03:00Z,42.805,6.029,13.2963,4.59973,2469.876,2019-9-11T14:03:23Z
2019-09-11T12:06:03Z,42.805,6.029,13.2966,4.59970,2469.89,2019-9-11T14:06:26Z
2019-09-11T12:09:06Z,42.805,6.029,13.2962,4.59968,2469.876,2019-9-11T14:09:29Z
2019-09-11T12:12:09Z,42.805,6.029,13.2960,4.59966,2469.853,2019-9-11T14:12:32Z
2019-09-11T12:15:12Z,42.805,6.029,13.2961,4.59966,2469.89,2019-9-11T14:15:35Z
2019-09-11T12:18:16Z,42.805,6.029,13.2964,4.59964,2469.89,2019-9-11T14:18:38Z
2019-09-11T12:21:19Z,42.805,6.029,13.2961,4.59969,2469.876,2019-9-11T14:21:42Z
2019-09-11T12:24:22Z,42.805,6.029,13.2963,4.59971,2469.876,2019-9-11T14:24:45Z
2019-09-11T12:27:25Z,42.805,6.029,13.2963,4.59966,2469.839,2019-9-11T14:27:48Z
2019-09-11T12:30:29Z,42.805,6.029,13.2975,4.59985,2469.914,2019-9-11T14:30:51Z
2019-09-11T12:33:32Z,42.805,6.029,13.2959,4.59970,2469.89,2019-9-11T14:33:55Z
2019-09-11T12:36:35Z,42.805,6.029,13.2958,4.59968,2469.876,2019-9-11T14:36:58Z
2019-09-11T12:39:38Z,42.805,6.029,13.2965,4.59966,2469.853,2019-9-11T14:40:01Z
2019-09-11T12:42:41Z,42.805,6.029,13.2958,4.59963,2469.9,2019-9-11T14:43:04Z
2019-09-11T12:45:45Z,42.805,6.029,13.2958,4.59967,2469.89,2019-9-11T14:46:07Z
2019-09-11T12:48:48Z,42.805,6.029,13.2962,4.59966,2469.876,2019-9-11T14:49:11Z
2019-09-11T12:51:51Z,42.805,6.029,13.2958,4.59967,2469.876,2019-9-11T14:52:14Z
2019-09-11T12:54:54Z,42.805,6.029,13.2960,4.59964,2469.89,2019-9-11T14:55:17Z
2019-09-11T12:57:58Z,42.805,6.029,13.2963,4.59966,2469.89,2019-9-11T14:58:20Z
2019-09-11T13:01:01Z,42.805,6.029,13.2964,4.59968,2469.876,2019-9-11T15:01:24Z
2019-09-11T13:04:04Z,42.805,6.029,13.2963,4.59969,2469.937,2019-9-11T15:04:27Z
2019-09-11T13:07:07Z,42.805,6.029,13.2960,4.59963,2469.867,2019-9-11T15:07:30Z
2019-09-11T13:10:10Z,42.805,6.029,13.2962,4.59960,2469.914,2019-9-11T15:10:33Z
2019-09-11T13:13:14Z,42.805,6.029,13.2963,4.59966,2469.89,2019-9-11T15:13:36Z
2019-09-11T13:16:17Z,42.805,6.029,13.2967,4.59969,2469.9,2019-9-11T15:16:40Z
2019-09-11T13:19:20Z,42.805,6.029,13.2963,4.59976,2469.9,2019-9-11T15:19:43Z
2019-09-11T13:22:23Z,42.805,6.029,13.2964,4.59972,2469.9,2019-9-11T15:22:46Z
2019-09-11T13:25:26Z,42.805,6.029,13.2959,4.59962,2469.876,2019-9-11T15:25:49Z
2019-09-11T13:28:30Z,42.805,6.029,13.2964,4.59963,2469.914,2019-9-11T15:28:52Z
2019-09-11T13:31:33Z,42.805,6.029,13.2958,4.59964,2469.89,2019-9-11T15:31:56Z
2019-09-11T13:34:36Z,42.805,6.029,13.2959,4.59964,2469.89,2019-9-11T15:34:59Z
2019-09-11T13:37:39Z,42.805,6.029,13.2958,4.59964,2469.914,2019-9-11T15:38:02Z
2019-09-11T13:40:42Z,42.805,6.029,13.2965,4.59963,2469.9,2019-9-11T15:41:05Z
2019-09-11T13:43:46Z,42.805,6.029,13.2961,4.59958,2469.937,2019-9-11T15:44:08Z
2019-09-11T13:46:49Z,42.805,6.029,13.2964,4.59965,2469.923,2019-9-11T15:47:12Z
2019-09-11T13:49:52Z,42.805,6.029,13.2959,4.59968,2469.937,2019-9-11T15:50:15Z
2019-09-11T13:52:55Z,42.805,6.029,13.2965,4.59969,2469.914,2019-9-11T15:53:18Z
2019-09-11T13:55:58Z,42.805,6.029,13.2964,4.59968,2469.9,2019-9-11T15:56:21Z
2019-09-11T13:59:02Z,42.805,6.029,13.2976,4.59988,2469.914,2019-9-11T15:59:24Z
2019-09-11T14:02:05Z,42.805,6.029,13.2963,4.59973,2469.9,2019-9-11T16:02:28Z
2019-09-11T14:05:08Z,42.805,6.029,13.2969,4.59982,2469.89,2019-9-11T16:05:31Z
2019-09-11T14:08:11Z,42.805,6.029,13.2969,4.59993,2469.923,2019-9-11T16:08:34Z
2019-09-11T14:11:14Z,42.805,6.029,13.2966,4.59984,2469.923,2019-9-11T16:11:37Z
2019-09-11T14:14:18Z,42.805,6.029,13.2974,4.59978,2469.937,2019-9-11T16:14:40Z
2019-09-11T14:17:21Z,42.805,6.029,13.2966,4.59984,2469.947,2019-9-11T16:17:44Z
2019-09-11T14:20:24Z,42.805,6.029,13.2971,4.59973,2469.947,2019-9-11T16:20:47Z
2019-09-11T14:23:27Z,42.805,6.029,13.2970,4.59985,2469.923,2019-9-11T16:23:50Z
2019-09-11T14:26:31Z,42.805,6.029,13.2961,4.59964,2469.984,2019-9-11T16:26:53Z
2019-09-11T14:29:34Z,42.805,6.029,13.2964,4.59991,2469.9,2019-9-11T16:29:57Z
2019-09-11T14:32:37Z,42.805,6.029,13.2977,4.59995,2469.923,2019-9-11T16:33:00Z
2019-09-11T14:35:40Z,42.805,6.029,13.2971,4.59988,2469.97,2019-9-11T16:36:03Z
2019-09-11T14:38:43Z,42.805,6.029,13.2967,4.59985,2469.96,2019-9-11T16:39:06Z
2019-09-11T14:41:47Z,42.805,6.029,13.2971,4.59981,2469.923,2019-9-11T16:42:09Z
2019-09-11T14:44:50Z,42.805,6.029,13.2976,4.59983,2469.947,2019-9-11T16:45:13Z
2019-09-11T14:47:53Z,42.805,6.029,13.2965,4.59986,2469.984,2019-9-11T16:48:16Z
2019-09-11T14:50:56Z,42.805,6.029,13.2971,4.60001,2469.947,2019-9-11T16:51:19Z
2019-09-11T14:54:00Z,42.805,6.029,13.2971,4.59980,2469.984,2019-9-11T16:54:22Z
2019-09-11T14:57:03Z,42.805,6.029,13.2964,4.59969,2469.993,2019-9-11T16:57:25Z
2019-09-11T15:00:06Z,42.805,6.029,13.2963,4.59975,2469.984,2019-9-11T17:00:29Z
2019-09-11T15:03:09Z,42.805,6.029,13.2971,4.59991,2469.947,2019-9-11T17:03:32Z
2019-09-11T15:06:12Z,42.805,6.029,13.2972,4.59993,2469.96,2019-9-11T17:06:35Z
2019-09-11T15:09:15Z,42.805,6.029,13.2971,4.59986,2469.97,2019-9-11T17:09:38Z
2019-09-11T15:12:19Z,42.805,6.029,13.2972,4.59981,2469.97,2019-9-11T17:12:41Z
2019-09-11T15:15:22Z,42.805,6.029,13.2976,4.59988,2470.007,2019-9-11T17:15:45Z
2019-09-11T15:18:25Z,42.805,6.029,13.2968,4.59998,2470.03,2019-9-11T17:18:48Z